Terminal Aerodrome Forecast
Issued by NWS Omaha/Valley, NE

Home | Current Version | Previous Version | Text Only | Print | Product List | Glossary On
Versions: 1 2 3 4 5 6 7 8 9 10 11 12 13 14 15 16 17 18 19 20 21 22 23 24 25 26 27 28 29 30 31 32 33 34 35 36 37 38 39 40
000
FTUS43 KOAX 031548 AAA
TAFOMA
TAF AMD
KOMA 031548Z 0316/0412 18011KT P6SM BKN250
      TEMPO 0317/0319 3SM TSRA BKN025CB
     FM032200 19014KT P6SM SCT040 BKN100
     FM040500 02010KT P6SM BKN030=

USA.gov is the U.S. government's official web portal to all federal, state and local government web resources and services.